Home > Weather > Maribor > Past weeks

Flag for Slovenia Past Weather in Maribor, Slovenia — Yesterday and Last 2 Weeks

Now
63 °F

Overcast.


Feels Like: 63 °F
Forecast: 55 / 76 °F
Wind: 1 mph from South

Location: Maribor / Slivnica

Current Time: Aug 30, 2016 at 7:14:18 AM

Latest Report: Aug 30, 2016 at 6:00 AM


Visibility: 31 mi

Pressure: 30.13 "Hg

Humidity: 94%

Dew Point: 61 °F

Location of MariborLocation

Past Weather in Maribor — Graph

°F

Maribor Temperature Yesterday

Maximum temperature yesterday: 85 °F (at 2:00 PM)
Minimum temperature yesterday: 58 °F (at 5:00 AM)
Average temperature yesterday: 69 °F

High & Low Weather Summary for the Past Weeks

 TemperatureHumidityPressure
High85 °F (Aug 29, 2:00 PM)99% (Aug 18, 5:00 AM)30.32 "Hg (Aug 18, 5:00 AM)
Low54 °F (Aug 27, 6:00 AM)39% (Aug 28, 2:00 PM)29.81 "Hg (Aug 18, 6:00 PM)
Average68 °F76%30.07 "Hg
* Reported Aug 15 5:00 AM — Aug 30 5:00 AM, Maribor, Weather by CustomWeather, © 2016

Note: Actual official high and low records may vary slightly from our data, if they occured in-between our weather recording intervals... More about our weather records

Advertising

Maribor Weather History for the Previous 24 Hours

Scroll right to see more
 ConditionsComfort  
Time TempWeatherWind HumidityBarometerVisibility
5:00 AM
Tue, Aug 30
64 °FMild.1 mph90%30.12 "Hg19 mi
4:00 AM64 °FMild.No wind90%30.11 "Hg25 mi
3:00 AM63 °FMild.3 mph91%30.11 "Hg28 mi
2:00 AM63 °FMild.2 mph95%30.11 "Hg8 mi
1:00 AM65 °FMild.2 mph90%30.11 "Hg17 mi
12:00 AM65 °FMild.3 mph93%30.09 "Hg11 mi
11:00 PM
Mon, Aug 29
66 °FDrizzle. Overcast.2 mph89%30.09 "Hg13 mi
10:00 PM67 °FLight rain. Overcast.1 mph88%30.10 "Hg7 mi
9:00 PM69 °FOvercast.2 mph70%30.09 "Hg7 mi
8:00 PM67 °FLight rain. Overcast.3 mph87%30.06 "Hg7 mi
7:00 PM67 °FLight rain. Overcast.7 mph87%30.06 "Hg7 mi
6:00 PM67 °FThundershowers. Overcast.6 mph85%30.05 "Hg7 mi
5:00 PM69 °FThundershowers. Partly sunny.9 mph83%30.01 "Hg12 mi
4:00 PM82 °FScattered clouds.6 mph55%29.95 "Hg12 mi
3:00 PM83 °FScattered clouds.3 mph55%29.94 "Hg12 mi
2:00 PM85 °FPartly sunny.2 mph50%29.96 "Hg12 mi
1:00 PM84 °FScattered clouds.1 mph51%29.97 "Hg9 mi
12:00 PM81 °FPassing clouds.2 mph57%29.98 "Hg9 mi
11:00 AM78 °FWarm.1 mph62%29.99 "Hg13 mi
10:00 AM74 °FPassing clouds.1 mph71%30.00 "Hg7 mi
9:00 AM69 °FPassing clouds.1 mph80%30.00 "Hg7 mi
8:00 AM64 °FPassing clouds.1 mph90%30.00 "Hg7 mi
7:00 AM61 °FPassing clouds.1 mph93%30.01 "Hg7 mi
Weather by CustomWeather, © 2016

See weather overviewHow to use our weather pages